www.pogodaiklimat.ru

Погода и климат >> Архив погоды >> Индия >> Pune


ПОГОДА в Pune

  • Прогноз погоды в Pune
  • Монитор погоды в Pune
  • Климат города

АРХИВ ПОГОДЫ в Pune

Время (UTC), дата Ветер
(напр.,м/с)
 
Видим.   Явления Облачность Т
(С)
Тd
(С)
f
(%)
Тe
(С)
Тes
(С)
Комфортность P
(гПа)
Po
(гПа)
Тmin
(С)
Tmax
(С)
R
(мм)
S
(см)
18 20.03 штиль 0 4000 м ясно +21.0 +6.8 40 +22 +22 комфорт 1013.1 950.2
21 20.03 штиль 0 4000 м ясно +18.8 +9.0 53 +19 +19 1012.8 949.5
00 21.03 штиль 0 4000 м ясно +16.2 +8.8 62 +16 +16 1013.6 949.8
03 21.03 штиль 0 10 км ясно +23.6 +10.0 42 +25 +31 комфорт 1014.5 952.1 +15.1
06 21.03 штиль 0 10 км ясно +32.4 +8.3 22 +31 +56 опасность
солнечного
удара
1012.5 952.0
09 21.03 В 1 10 км ясно +35.4 +8.1 19 +34 +52 опасность
солнечного
удара
1008.8 949.0
12 21.03 В 1 10 км ясно +35.0 +6.1 17 +33 +35 жарко 1007.8 947.9 +36.4
15 21.03 З 1 4000 м ясно +28.4 +5.1 23 +27 +27 жарко 1011.6 950.4
18 21.03 штиль 0 4000 м ясно +21.4 +6.9 39 +22 +22 комфорт 1014.1 951.3
21 21.03 штиль 0 4000 м ясно +18.2 +8.6 53 +18 +18 1013.3 950.0
00 22.03 штиль 0 4000 м ясно +16.6 +8.4 58 +17 +17 1013.6 949.8
03 22.03 штиль 0 10 км ясно +24.0 +10.1 41 +25 +32 комфорт 1014.1 951.7 +15.5
06 22.03 В 1 10 км ясно +33.2 +7.1 20 +31 +53 опасность
солнечного
удара
1011.8 951.5
09 22.03 В 2 10 км ясно +36.6 +7.5 17 +35 +51 опасность
солнечного
удара
1007.6 948.2
12 22.03 З 1 10 км ясно +36.2 +5.4 15 +34 +35 очень
жарко
1005.9 946.6 +36.9
15 22.03 З 1 4000 м ясно +29.9 +15.7 42 +33 +33 душно 1009.7 948.8
18 22.03 штиль 0 4000 м ясно +24.8 +15.6 57 +28 +28 жарко 1012.1 950.0
21 22.03 З 1 4000 м ясно +20.9 +13.9 64 +25 +25 комфорт 1011.1 948.3
00 23.03 штиль 0 4000 м ясно +18.9 +14.5 76 +20 +20 1011.2 948.0
03 23.03 штиль 0 10 км ясно +25.2 +14.6 52 +28 +34 жарко 1011.9 950.1 +18.0
06 23.03 В 2 10 км ясно +34.2 +11.3 25 +34 +53 опасность
солнечного
удара
1010.0 950.0
12 23.03 штиль 0 10 км 5/4 800 м
[Sc Ac trans]
+36.0 +9.8 20 +35 +36 очень
жарко
1005.8 946.3 +37.7
15 23.03 З 1 4000 м ясно +30.2 +11.7 32 +31 +31 жарко 1009.3 948.7
18 23.03 штиль 0 4000 м ясно +24.6 +13.8 51 +27 +27 жарко 1011.6 949.5
21 23.03 штиль 0 4000 м ясно +20.6 +12.5 60 +23 +23 комфорт 1010.5 947.7
00 24.03 штиль 0 4000 м ясно +19.0 +12.9 68 +20 +20 1010.9 947.9
03 24.03 штиль 0 10 км ясно +25.0 +14.3 51 +27 +34 жарко 1012.4 950.3 +17.5
06 24.03 штиль 0 10 км ясно +34.0 +11.0 25 +34 +59 опасность
солнечного
удара
1010.3 950.1
09 24.03 штиль 0 4000 м 3/1 800 м
[Sc Ci fib]
+37.6 +6.4 15 +35 +53 опасность
солнечного
удара
1005.8 946.7
12 24.03 штиль 0 10 км 3/1 800 м
[Sc Ci fib]
+36.4 +8.8 19 +35 +37 очень
жарко
1004.9 945.6 +38.1
15 24.03 З 1 4000 м 4/1 800 м
[Sc Ac trans]
+30.8 +17.8 46 +35 +35 очень
душно
1009.1 948.5
18 24.03 штиль 0 4000 м 3/1 800 м
[Sc Ac trans]
+26.8 +17.3 56 +31 +31 душно 1011.3 949.7
21 24.03 штиль 0 4000 м 3/0 1500 м
[Ac trans]
+23.6 +15.3 60 +27 +27 жарко 1010.6 948.5
00 25.03 штиль 0 4000 м 4/1 800 м
[Sc Ac trans Ci fib]
+21.4 +14.6 65 +24 +24 комфорт 1010.8 948.3
03 25.03 штиль 0 4000 м 1/0
[Ci fib]
+25.6 +16.2 56 +29 +36 душно 1012.3 950.5 +20.3
06 25.03 СВ 1 10 км ясно +35.0 +10.1 22 +34 +58 опасность
солнечного
удара
1010.2 950.2
09 25.03 В 2 10 км ясно +37.1 +9.3 19 +36 +51 опасность
солнечного
удара
1006.1 947.0
12 25.03 В 2 10 км ясно +37.1 +9.9 19 +36 +38 очень
жарко
1004.6 945.5 +38.3
15 25.03 З 2 4000 м ясно +31.3 +16.2 40 +34 +34 душно 1008.6 948.2
18 25.03 штиль 0 4000 м ясно +26.9 +17.3 56 +31 +31 душно 1011.3 949.7
21 25.03 штиль 0 4000 м ясно +23.2 +17.0 68 +28 +28 душно 1010.3 948.2
00 26.03 штиль 0 4000 м ясно +20.8 +15.3 71 +24 +24 комфорт 1011.5 948.7
03 26.03 штиль 0 4000 м мгла ясно +26.8 +17.1 55 +31 +37 душно 1012.9 951.2 +19.9
06 26.03 СВ 1 10 км ясно +35.8 +11.0 22 +35 +57 опасность
солнечного
удара
1011.3 951.4
09 26.03 штиль 0 10 км ясно +38.2 +10.5 19 +37 +59 опасность
солнечного
удара
1007.3 948.3
12 26.03 В 1 10 км ясно +34.4 +10.7 24 +34 +36 очень
жарко
1006.0 946.9 +38.8
15 26.03 З 2 4000 м ясно +31.8 +17.1 41 +35 +35 очень
душно
1009.1 948.7
18 26.03 штиль 0 4000 м ясно +26.0 +15.2 51 +29 +29 душно 1011.6 949.8
21 26.03 штиль 0 4000 м ясно +22.3 +14.9 63 +26 +26 жарко 1010.5 948.2
00 27.03 штиль 0 4000 м ясно +20.7 +15.0 70 +23 +23 комфорт 1010.9 948.1
03 27.03 штиль 0 4000 м мгла ясно +25.6 +16.9 59 +29 +36 душно 1012.5 950.7 +19.0
06 27.03 В 1 10 км ясно +36.8 +7.9 17 +35 +57 опасность
солнечного
удара
1010.3 950.7
09 27.03 В 1 10 км ясно +39.2 +7.2 14 +37 +57 опасность
солнечного
удара
1006.8 947.9
12 27.03 В 1 10 км ясно +38.4 +5.5 13 +36 +38 очень
жарко
1005.6 946.7 +39.7
15 27.03 штиль 0 4000 м ясно +28.4 +11.8 36 +29 +29 жарко 1010.2 949.0

 

Местоположение метеостанции Pune (Maharashtra, Индия): широта 18.53 долгота 73.85 высота над уровнем моря 559 м.

В архиве по умолчанию представлена погода в Pune за последнюю неделю. Архивные данные за месяц целиком и за предыдущие месяцы, начиная с января 2011 года, Вы можете получить, выбрав интересующий диапазон дат из раскрывающегося списка и нажав кнопку "Ввод!".

Внимание! Время в таблицах - всемирное. Для получения местного времени необходимо прибавить поправку, которая в Pune равна 5.5 ч.

Смотрите также архив погоды в соседних городах и на ближайших метеорологических станциях:

Погода в Bhira (Maharashtra, Индия) (48 км)
Погода в Mahabaleshwar (Maharashtra, Индия) (69 км)
Погода в Alibag (Maharashtra, Индия) (104 км)
Погода в Harnai (Maharashtra, Индия) (112 км)
Погода в Satara (Maharashtra, Индия) (114 км)
Погода в Mumbai Colaba (Maharashtra, Индия) (116 км)
Погода в Ahmednagar (Maharashtra, Индия) (117 км)
Погода в Mumbai (Maharashtra, Индия) (124 км)
Погода в Jeur (Maharashtra, Индия) (141 км)
Погода в Nashik (Maharashtra, Индия) (164 км)

Пояснения к столбцам:

Ветер - указаны скорость ветра в м/с - средняя за 10 мин, порывы в срок и между сроками (в фигурных скобках) и направление, откуда дует ветер: С - северный, СВ - северо-восточный, В - восточный, ЮВ - юго-восточный, Ю - южный, ЮЗ - юго-западный, З - западный, СЗ - северо-западный.
Видимость - горизонтальная дальность видимости в метрах или километрах. При видимости от 1 до 10 км при отсутствии осадков обычно наблюдается дымка, при ухудшении видимости до 1 км и менее - туман. В сухую погоду видимость может ухудшаться дымом, пылью или мглою.
Явления - указаны атмосферные явления, наблюдавшиеся в срок или в последний час перед сроком; фигурными скобками обозначены явления, наблюдавшиеся между сроками (за 1-3 часа до срока); квадратными скобками обозначены град или гололедные отложения с указанием их диаметра в мм.
Облачность - указаны через наклонную черту общая и нижняя облачность в баллах и высота нижней границы облаков в метрах; квадратными скобками обозначены формы облаков: Ci - перистые, Cs - перисто-слоистые, Cc - перисто-кучевые, Ac - высококучевые, As - высокослоистые, Sc - слоисто-кучевые, Ns - слоисто-дождевые, Cu - кучевые, Cb - кучево-дождевые. Подробнее классификацию облаков см. в Атласе облаков (PDF).
T - Температура воздуха - температура, измеренная на высоте 2 м над землей.
Td - Температура точки росы - температура, при понижении до которой содержащийся в воздухе водяной пар достигнет насыщения.
f - Относительная влажность воздуха - влажноcть воздуха, измеренная на высоте 2 м над землей.
Te - Эффективная температура - температура, которую ощущает одетый по сезону человек в тени. Характеристика душности погоды. При расчете учитывается влияние влажности воздуха и скорости ветра на теплоощущения человека.
Tes - Эффективная температура на солнце - температура, которую ощущает человек, с поправкой на солнечный нагрев. Характеристика знойности погоды. Зависит от высоты солнца над горизонтом, облачности и скорости ветра. Ночью, в пасмурную погоду, а также при ветре 12 м/с и более поправка равна нулю.
P - Атмосферное давление - приведенное к уровню моря атмосферное давление.
Po - Атмосферное давление - измеренное на уровне метеостанции атмосферное давление.
Tmin - Минимальная температура - минимум температуры воздуха на высоте 2 м над землей.
Tmax - Максимальная температура - максимум температуры воздуха на высоте 2 м над землей.
R - Количество осадков - Количество выпавших осадков, мм. При наведении курсора мыши на число - период времени, за который выпало указанное количество осадков.
S - Снежный покров - Высота снежного покрова, см. При наведении курсора мыши на число - состояние снежного покрова и степень покрытия местности в баллах.